Howell, MI

8:00 PM EDT on May 27, 2017 (GMT -0400)
Livingston County

Weather History for KOZW - April, 2013

Change the Weather History Date:

Friday, April 5, 2013

  Actual Average Record
Temperature  
Mean Temperature 38 °F -  
Max Temperature 46 °F 52 °F 77 °F (2005)
Min Temperature 30 °F 33 °F 17 °F (2016)
Degree Days  
Heating Degree Days 27    
Moisture  
Dew Point 21 °F    
Average Humidity 48    
Maximum Humidity 92    
Minimum Humidity 29    
Precipitation  
Precipitation 0.00 in - - ()
Sea Level Pressure  
Sea Level Pressure 30.08 in    
Wind  
Wind Speed 5 mph (NNW)    
Max Wind Speed 13 mph    
Max Gust Speed 21 mph    
Visibility 10 miles    
Events      
Averages and records for this station are not official NWS values.
T = Trace of Precipitation, MM = Missing Value Source: NWS Daily Summary

Daily Weather History Graph

Daily Weather History Graph

Search for Another Location

Airport or City:

Trip Planner

Search our weather history database for the weather conditions in past years. The results will help you decide how hot, cold, wet, or windy it might be!

Date:

Astronomy

Apr. 05, 2013 Rise Set
Actual Time 7:10 AM EDT 8:06 PM EDT
Civil Twilight 6:42 AM EDT 8:35 PM EDT
Nautical Twilight 6:08 AM EDT 9:09 PM EDT
Astronomical Twilight 5:32 AM EDT 9:45 PM EDT
Moon 4:23 AM EDT (4/5) 3:24 PM EDT (4/5)
Length of Visible Light 13h 53m
Length of Day
12h 55m
Waning Crescent, 24% of the Moon is Illuminated
Apr 5
Waning Crescent
Apr 10
New
Apr 18
First Quarter
Apr 25
Full
May 2
Last Quarter

Hourly Weather History & Observations

Time (EDT) Temp. Windchill Dew Point Humidity Pressure Visibility Wind Dir Wind Speed Gust Speed Precip Events Conditions
12:15 AM 44.6 °F 43.1 °F 22.1 °F 41% 29.93 in 10.0 mi SW 3.5 mph - N/A   Overcast
12:34 AM 44.8 °F 43.3 °F 20.3 °F 38% 29.93 in 10.0 mi WSW 3.5 mph - N/A   Overcast
12:55 AM 45.0 °F 43.5 °F 19.4 °F 36% 29.93 in 10.0 mi West 3.5 mph - N/A   Overcast
1:15 AM 44.1 °F - 20.1 °F 39% 29.93 in 10.0 mi Calm Calm - N/A   Overcast
1:35 AM 44.4 °F - 18.3 °F 35% 29.93 in 10.0 mi Calm Calm - N/A   Overcast
1:55 AM 43.3 °F 41.7 °F 18.5 °F 37% 29.93 in 10.0 mi West 3.5 mph - N/A   Overcast
2:15 AM 43.2 °F 40.5 °F 18.7 °F 38% 29.93 in 10.0 mi WNW 4.6 mph - N/A   Overcast
2:35 AM 41.4 °F 38.4 °F 19.2 °F 41% 29.93 in 10.0 mi NW 4.6 mph - N/A   Mostly Cloudy
2:55 AM 42.4 °F 39.6 °F 19.9 °F 41% 29.93 in 10.0 mi North 4.6 mph - N/A   Mostly Cloudy
3:15 AM 42.8 °F 39.3 °F 20.8 °F 42% 29.95 in 10.0 mi North 5.8 mph - N/A   Overcast
3:35 AM 41.0 °F 36.4 °F 24.3 °F 51% 29.95 in 10.0 mi North 6.9 mph - N/A   Scattered Clouds
3:55 AM 40.3 °F 36.3 °F 29.1 °F 64% 29.96 in 10.0 mi North 5.8 mph - N/A   Clear
4:15 AM 39.2 °F 35.0 °F 30.4 °F 71% 29.97 in 10.0 mi North 5.8 mph - N/A   Clear
4:35 AM 38.3 °F 33.2 °F 31.1 °F 75% 29.98 in 10.0 mi NNE 6.9 mph - N/A   Clear
4:54 AM 37.4 °F 32.8 °F 31.3 °F 79% 29.99 in 10.0 mi North 5.8 mph - N/A   Clear
5:15 AM 36.5 °F 31.8 °F 32.0 °F 84% 30.00 in 7.0 mi North 5.8 mph - N/A   Clear
5:35 AM 35.8 °F 31.9 °F 32.0 °F 86% 30.01 in 7.0 mi North 4.6 mph - N/A   Clear
5:54 AM 35.2 °F 31.2 °F 31.6 °F 87% 30.02 in 7.0 mi NNE 4.6 mph - N/A   Clear
6:15 AM 34.7 °F 31.8 °F 31.1 °F 87% 30.03 in 7.0 mi NNE 3.5 mph - N/A   Clear
6:35 AM 34.0 °F 31.0 °F 30.4 °F 87% 30.04 in 7.0 mi North 3.5 mph - N/A   Clear
6:54 AM 33.4 °F - 29.8 °F 87% 30.05 in 10.0 mi Calm Calm - N/A   Clear
7:15 AM 32.4 °F - 29.5 °F 89% 30.06 in 7.0 mi Calm Calm - N/A   Clear
7:35 AM 32.5 °F - 30.6 °F 92% 30.08 in 5.0 mi Calm Calm - N/A   Clear
8:15 AM 33.6 °F 30.6 °F 30.2 °F 87% 30.09 in 7.0 mi NNW 3.5 mph - N/A   Scattered Clouds
8:35 AM 34.9 °F 29.9 °F 28.0 °F 76% 30.10 in 10.0 mi North 5.8 mph - N/A   Clear
8:54 AM 35.8 °F 28.3 °F 25.0 °F 65% 30.10 in 10.0 mi North 10.4 mph - N/A   Mostly Cloudy
9:15 AM 36.9 °F 29.1 °F 23.4 °F 58% 30.10 in 10.0 mi North 11.5 mph - N/A   Scattered Clouds
9:35 AM 37.4 °F 29.8 °F 21.6 °F 53% 30.11 in 10.0 mi NNW 11.5 mph 18.4 mph N/A   Clear
9:55 AM 37.9 °F 31.5 °F 19.2 °F 47% 30.11 in 10.0 mi North 9.2 mph 20.7 mph N/A   Clear
10:15 AM 38.3 °F 30.9 °F 19.2 °F 46% 30.11 in 10.0 mi NNW 11.5 mph 17.3 mph N/A   Clear
10:34 AM 38.8 °F 31.2 °F 18.9 °F 45% 30.12 in 10.0 mi NNW 12.7 mph 16.1 mph N/A   Clear
10:55 AM 39.0 °F 31.4 °F 18.3 °F 43% 30.13 in 10.0 mi NNW 12.7 mph 17.3 mph N/A   Clear
11:15 AM 39.7 °F 33.7 °F 17.8 °F 41% 30.13 in 10.0 mi NNE 9.2 mph - N/A   Clear
11:34 AM 40.8 °F 35.6 °F 17.4 °F 39% 30.14 in 10.0 mi North 8.1 mph 18.4 mph N/A   Clear
11:55 AM 41.0 °F 35.8 °F 17.4 °F 39% 30.13 in 10.0 mi North 8.1 mph - N/A   Clear
12:14 PM 41.4 °F 35.2 °F 18.0 °F 39% 30.14 in 10.0 mi North 10.4 mph 17.3 mph N/A   Clear
12:35 PM 41.9 °F 35.9 °F 17.6 °F 38% 30.14 in 10.0 mi North 10.4 mph 19.6 mph N/A   Clear
12:55 PM 42.6 °F 37.8 °F 18.5 °F 38% 30.14 in 10.0 mi NNW 8.1 mph 18.4 mph N/A   Clear
1:14 PM 43.2 °F 37.0 °F 17.8 °F 36% 30.14 in 10.0 mi NNW 11.5 mph 16.1 mph N/A   Clear
1:35 PM 43.5 °F 37.1 °F 16.5 °F 34% 30.14 in 10.0 mi NNW 12.7 mph 19.6 mph N/A   Clear
1:55 PM 43.9 °F 39.3 °F 16.7 °F 34% 30.13 in 10.0 mi North 8.1 mph 16.1 mph N/A   Clear
2:14 PM 43.5 °F 38.3 °F 16.2 °F 33% 30.13 in 10.0 mi NNE 9.2 mph 17.3 mph N/A   Clear
2:35 PM 43.7 °F 37.7 °F 17.1 °F 34% 30.12 in 10.0 mi NNW 11.5 mph 17.3 mph N/A   Clear
2:55 PM 44.6 °F 40.7 °F 17.8 °F 34% 30.12 in 10.0 mi North 6.9 mph - N/A   Clear
3:14 PM 45.5 °F 41.3 °F 17.8 °F 33% 30.12 in 10.0 mi NW 8.1 mph 19.6 mph N/A   Clear
3:35 PM 45.5 °F 41.3 °F 17.6 °F 33% 30.11 in 10.0 mi North 8.1 mph - N/A   Clear
3:55 PM 45.1 °F 42.8 °F 17.6 °F 33% 30.10 in 10.0 mi NNE 4.6 mph - N/A   Clear
4:14 PM 46.2 °F 42.2 °F 15.4 °F 29% 30.10 in 10.0 mi North 8.1 mph 16.1 mph N/A   Clear
4:35 PM 46.2 °F 42.2 °F 15.8 °F 30% 30.10 in 10.0 mi NW 8.1 mph - N/A   Clear
4:55 PM 45.5 °F 42.5 °F 16.0 °F 31% 30.10 in 10.0 mi North 5.8 mph - N/A   Clear
5:15 PM 45.9 °F 41.7 °F 15.6 °F 30% 30.10 in 10.0 mi NW 8.1 mph - N/A   Clear
5:35 PM 46.4 °F 45.2 °F 16.3 °F 30% 30.10 in 10.0 mi WNW 3.5 mph - N/A   Clear
5:55 PM 46.0 °F 42.5 °F 17.4 °F 32% 30.11 in 10.0 mi WNW 6.9 mph - N/A   Clear
6:15 PM 46.2 °F 41.7 °F 17.6 °F 32% 30.11 in 10.0 mi NNW 9.2 mph - N/A   Clear
6:35 PM 45.5 °F 41.8 °F 18.0 °F 33% 30.12 in 10.0 mi WNW 6.9 mph - N/A   Clear
6:54 PM 44.8 °F 41.6 °F 17.4 °F 33% 30.13 in 10.0 mi NW 5.8 mph - N/A   Clear
7:15 PM 43.9 °F 40.5 °F 17.1 °F 34% 30.13 in 10.0 mi NNW 5.8 mph - N/A   Clear
7:35 PM 43.2 °F 38.4 °F 17.2 °F 35% 30.13 in 10.0 mi NW 8.1 mph - N/A   Clear
7:54 PM 42.6 °F 39.9 °F 17.4 °F 36% 30.14 in 10.0 mi NNW 4.6 mph - N/A   Clear
8:15 PM 41.2 °F 38.2 °F 16.7 °F 37% 30.15 in 10.0 mi NNW 4.6 mph - N/A   Clear
8:35 PM 40.3 °F 38.2 °F 16.3 °F 38% 30.15 in 10.0 mi NNW 3.5 mph - N/A   Clear
8:54 PM 39.9 °F - 16.0 °F 38% 30.15 in 10.0 mi Calm Calm - N/A   Clear
9:15 PM 39.2 °F - 16.5 °F 40% 30.16 in 10.0 mi Calm Calm - N/A   Clear
9:35 PM 38.5 °F - 16.3 °F 41% 30.17 in 10.0 mi Calm Calm - N/A   Clear
9:54 PM 37.2 °F - 17.2 °F 44% 30.17 in 10.0 mi Calm Calm - N/A   Clear
10:15 PM 35.6 °F - 17.1 °F 47% 30.17 in 10.0 mi Calm Calm - N/A   Clear
10:35 PM 34.3 °F - 18.0 °F 51% 30.17 in 10.0 mi Calm Calm - N/A   Clear
10:55 PM 35.6 °F - 18.0 °F 49% 30.18 in 10.0 mi Calm Calm - N/A   Clear
11:15 PM 33.6 °F - 18.9 °F 55% 30.17 in 10.0 mi Calm Calm - N/A   Clear
11:35 PM 30.2 °F 22.6 °F 19.4 °F 64% 30.18 in 10.0 mi SE 8.1 mph - N/A   Clear
11:55 PM 31.1 °F 24.5 °F 22.1 °F 69% 30.18 in 10.0 mi SE 6.9 mph - N/A   Clear